Tracking 19176 objects as of 27-May-2018
HD Live streaming from Space Station
objects crossing your sky now

FENGYUN 1C DEB

Track FENGYUN 1C DEB now!
10-day predictions


NORAD ID: 30017
Int'l Code: 1999-025MS
Perigee: 549.2 km
Apogee: 879.6 km
Inclination: 98.7 °
Period: 98.9 minutes
Semi major axis: 7085 km
RCS: 0.0357 m2 (small)
Launch date: May 10, 1999
Source: People's Republic of China (PRC)
Launch site: Taiyaun Space Center, China (TSC)

Note: This is SATELLITE DEBRIS
aabbcc
Your satellite tracking list
Your tracking list is empty




NASA's NSSDC Master Catalog

Two Line Element Set (TLE):
1 30017U 99025MS  18147.16852779 +.00000028 +00000-0 +15543-4 0  9994
2 30017 098.7418 019.6914 0233182 333.0716 025.8531 14.55655245603018
Source of the keplerian elements: AFSPC